Mountain Home, AR

10:20 PM CDT on March 29, 2017 (GMT -0500)
Baxter County Regional

Weather History for KBPK - September, 2013

Change the Weather History Date:

Tuesday, September 10, 2013

  Actual Average (KFLP) Record (KFLP)
Temperature  
Mean Temperature 82 °F -  
Max Temperature 95 °F 82 °F 95 °F (2013)
Min Temperature 69 °F 59 °F 48 °F (1998)
Cooling Degree Days 17    
Growing Degree Days 32 (Base 50)    
Moisture  
Dew Point 63 °F    
Average Humidity 59    
Maximum Humidity 84    
Minimum Humidity 27    
Precipitation  
Precipitation 0.00 in - - ()
Sea Level Pressure  
Sea Level Pressure 30.06 in    
Wind  
Wind Speed 2 mph (SSW)    
Max Wind Speed 8 mph    
Max Gust Speed -    
Visibility 7 miles    
Events      
Averages and records for this station are not official NWS values.
T = Trace of Precipitation, MM = Missing Value Source: NWS Daily Summary

Daily Weather History Graph

Daily Weather History Graph

Search for Another Location

Airport or City:

Trip Planner

Search our weather history database for the weather conditions in past years. The results will help you decide how hot, cold, wet, or windy it might be!

Date:

Astronomy

Sep. 10, 2013 Rise Set
Actual Time 6:48 AM CDT 7:24 PM CDT
Civil Twilight 6:22 AM CDT 7:50 PM CDT
Nautical Twilight 5:52 AM CDT 8:20 PM CDT
Astronomical Twilight 5:20 AM CDT 8:51 PM CDT
Moon 12:04 PM CDT (9/10) 10:38 PM CDT (9/10)
Length of Visible Light 13h 27m
Length of Day
12h 35m
Waxing Crescent, 28% of the Moon is Illuminated
Sep 10
Waxing Crescent
Sep 12
First Quarter
Sep 19
Full
Sep 26
Last Quarter
Oct 4
New

Hourly Weather History & Observations

Time (CDT) Temp. Heat Index Dew Point Humidity Pressure Visibility Wind Dir Wind Speed Gust Speed Precip Events Conditions
12:53 AM 75.9 °F - 64.9 °F 69% 29.99 in 8.0 mi SSW 3.5 mph - N/A   Clear
1:53 AM 75.0 °F - 64.0 °F 69% 30.00 in 7.0 mi Calm Calm - N/A   Clear
2:53 AM 71.1 °F - 64.9 °F 81% 30.01 in 7.0 mi Calm Calm - N/A   Clear
3:53 AM 70.0 °F - 64.0 °F 81% 30.02 in 7.0 mi Calm Calm - N/A   Clear
4:53 AM 70.0 °F - 64.0 °F 81% 30.03 in 7.0 mi Calm Calm - N/A   Clear
5:53 AM 69.1 °F - 64.0 °F 84% 30.05 in 7.0 mi Calm Calm - N/A   Clear
6:53 AM 69.1 °F - 64.0 °F 84% 30.07 in 6.0 mi Calm Calm - N/A   Haze
7:53 AM 72.0 °F - 66.9 °F 84% 30.09 in 5.0 mi Calm Calm - N/A   Haze
8:53 AM 78.1 °F - 66.0 °F 66% 30.10 in 6.0 mi Calm Calm - N/A   Haze
9:53 AM 82.9 °F 84.4 °F 64.0 °F 53% 30.12 in 7.0 mi Variable 3.5 mph - N/A   Clear
10:53 AM 86.0 °F 87.3 °F 64.0 °F 48% 30.12 in 7.0 mi Variable 3.5 mph - N/A   Clear
11:53 AM 89.1 °F 90.3 °F 64.0 °F 43% 30.11 in 7.0 mi Variable 3.5 mph - N/A   Clear
12:53 PM 91.9 °F 91.8 °F 61.0 °F 35% 30.10 in 8.0 mi Calm Calm - N/A   Clear
1:53 PM 93.9 °F 93.2 °F 59.0 °F 31% 30.08 in 8.0 mi WSW 6.9 mph - N/A   Clear
2:53 PM 93.9 °F 92.6 °F 57.0 °F 29% 30.06 in 8.0 mi Variable 4.6 mph - N/A   Clear
3:53 PM 95.0 °F 93.4 °F 55.9 °F 27% 30.05 in 8.0 mi SSW 8.1 mph - N/A   Clear
4:53 PM 91.0 °F 91.5 °F 62.1 °F 38% 30.04 in 8.0 mi SW 3.5 mph - N/A   Clear
5:53 PM 91.0 °F 90.9 °F 61.0 °F 36% 30.04 in 8.0 mi South 3.5 mph - N/A   Clear
6:53 PM 82.0 °F 84.9 °F 68.0 °F 62% 30.04 in 7.0 mi Calm Calm - N/A   Clear
7:53 PM 79.0 °F - 64.9 °F 62% 30.06 in 8.0 mi Calm Calm - N/A   Clear
8:53 PM 79.0 °F - 63.0 °F 58% 30.08 in 8.0 mi Calm Calm - N/A   Clear
9:53 PM 78.1 °F - 64.0 °F 62% 30.09 in 8.0 mi Calm Calm - N/A   Clear
10:53 PM 79.0 °F - 64.0 °F 60% 30.09 in 8.0 mi Calm Calm - N/A   Clear
11:53 PM 77.0 °F - 64.9 °F 66% 30.09 in 7.0 mi Calm Calm - N/A   Clear